Location: Lombard
(41.8800°N, 88.0080°W)
Time: 14:01:57
(UTC-05:00)

JY1SAT - Visible Passes

Search period start: 16 May 2022 00:00
Search period end: 26 May 2022 00:00
Orbit: 566 x 587 km, 97.6° (Epoch: 16 May)

Date Brightness Start Highest point End Pass type
(mag) Time Alt. Az. Time Alt. Az. Time Alt. Az.
16 May ? 22:01:31 37° ESE 22:02:36 48° ENE 22:06:32 10° N visible
16 May ? 23:37:46 13° W 23:38:08 13° W 23:40:05 10° WNW visible
17 May ? 22:05:21 40° SE 22:06:26 54° ENE 22:10:25 10° N visible
17 May ? 23:41:36 12° W 23:42:02 12° W 23:43:33 10° WNW visible
18 May ? 22:09:10 42° SE 22:10:16 60° ENE 22:14:17 10° N visible
18 May ? 23:45:25 10° W 23:45:55 11° W 23:46:48 10° WNW visible
19 May ? 22:12:59 44° SE 22:14:05 67° ENE 22:18:08 10° N visible
20 May ? 22:16:47 46° SSE 22:17:55 75° ENE 22:21:59 10° N visible
21 May ? 22:20:35 46° SSE 22:21:44 83° ENE 22:25:49 10° N visible
22 May ? 22:24:23 46° SSE 22:25:32 89° WSW 22:29:37 10° NNW visible
23 May ? 22:28:11 46° S 22:29:21 80° W 22:33:26 10° NNW visible
24 May ? 20:57:56 10° ENE 20:58:30 10° ENE 20:59:05 10° NE visible
24 May ? 22:31:58 44° S 22:33:09 72° WSW 22:37:14 10° NNW visible
25 May ? 21:00:57 10° E 21:02:15 11° ENE 21:03:33 10° NE visible
25 May ? 22:35:45 42° SSW 22:36:56 65° W 22:41:00 10° NNW visible
